Location: Cambridge (historical)
(38.6883°N, 119.0140°W)
Time: 12:06:09
(UTC+00:00)

FALCONSAT 3 - Visible Passes

Search period start: 20 September 2021 00:00
Search period end: 30 September 2021 00:00
Orbit: 440 x 441 km, 35.4° (Epoch: 20 September)

Date Brightness Start Highest point End Pass type
(mag) Time Alt. Az. Time Alt. Az. Time Alt. Az.
20 Sep ? 03:26:43 10° WSW 03:30:07 47° S 03:30:17 46° SSE visible
21 Sep ? 02:44:43 10° WSW 02:48:06 45° S 02:50:23 18° ESE visible
21 Sep ? 04:23:02 10° W 04:23:43 15° WSW 04:23:43 15° WSW visible
22 Sep ? 03:40:59 10° W 03:43:47 41° SW 03:43:47 41° SW visible
23 Sep ? 02:58:56 10° W 03:02:20 48° S 03:03:50 28° SE visible
24 Sep ? 02:16:52 10° WSW 02:20:17 49° S 02:23:42 10° ESE visible
24 Sep ? 03:55:26 10° WSW 03:57:13 22° SW 03:57:13 22° SW visible
25 Sep ? 03:13:18 10° W 03:16:28 32° SSW 03:17:16 28° SSE visible
26 Sep ? 02:31:11 10° W 02:34:26 35° SSW 02:37:21 12° SE visible
27 Sep ? 03:28:17 10° WSW 03:30:24 15° SSW 03:30:50 15° SSW visible
28 Sep ? 02:45:55 10° WSW 02:48:22 18° SSW 02:50:49 10° SSE visible
29 Sep ? 02:03:38 10° WSW 02:06:19 20° SSW 02:09:00 10° SSE visible
